Flag for U.S.A. Weather past 2 weeks in Chicago, Illinois, U.S.A.

Now
74 °F

Mostly cloudy.


Feels Like: 77 °F
Forecast: 63 / 75 °F
Wind: 7 mph from Southwest

Location: Chicago Midway Airport

Current Time: Aug 28, 2015 at 12:20:43 PM

Latest Report: Aug 28, 2015 at 11:53 AM


Visibility: 10 mi

Pressure: 30.12 "Hg

Humidity: 62%

Dew point: 60 °F

Location of ChicagoLocation

Historic Weather in Chicago — Graph

°F

Chicago temperature yesterday

Maximum temperature yesterday: 75 °F (at 2:53 PM)
Minimum temperature yesterday: 57 °F (at 2:53 AM)
Average temperature yesterday: 66 °F

Past Weeks' High & Low Weather Summary

 TemperatureHumidityPressure
High90 °F (Aug 14, 3:53 PM)87% (Aug 15, 3:53 AM)30.22 "Hg (Aug 15, 3:53 AM)
Low57 °F (Aug 24, 5:53 AM)34% (Aug 24, 2:53 PM)29.61 "Hg (Aug 19, 4:53 AM)
Average73 °F63%29.98 "Hg
* Reported Aug 13 10:53 AM — Aug 28 10:53 AM, Chicago, Weather by CustomWeather, © 2015

Note: Actual official high and low records may vary slightly from our data, if they occured in-between our weather recording intervals... More about our weather records

Advertising

Chicago weather history for previous 24 hours

 ConditionsComfort  
Time TempWeatherWind HumidityBarometerVisibility
10:53 AM
Fri, Aug 28
73 °FMostly cloudy.8 mph62%30.13 "Hg10 mi
9:53 AM71 °FPartly sunny.5 mph63%30.13 "Hg10 mi
8:53 AM68 °FPartly sunny.5 mph70%30.12 "Hg10 mi
7:53 AM65 °FPartly sunny.3 mph73%30.13 "Hg10 mi
6:53 AM63 °FPartly cloudy.No wind78%30.12 "Hg10 mi
5:53 AM62 °FPassing clouds.6 mph78%30.10 "Hg10 mi
4:53 AM62 °FPassing clouds.6 mph78%30.09 "Hg10 mi
3:53 AM63 °FPassing clouds.5 mph75%30.10 "Hg10 mi
2:53 AM64 °FPassing clouds.5 mph73%30.11 "Hg10 mi
1:53 AM64 °FPassing clouds.6 mph73%30.11 "Hg10 mi
12:53 AM65 °FPassing clouds.3 mph70%30.12 "Hg10 mi
11:53 PM
Thu, Aug 27
66 °FPassing clouds.6 mph73%30.11 "Hg10 mi
10:53 PM67 °FPassing clouds.5 mph73%30.12 "Hg10 mi
9:53 PM67 °FPassing clouds.5 mph71%30.11 "Hg10 mi
8:53 PM68 °FPassing clouds.8 mph65%30.11 "Hg9 mi
7:53 PM69 °FPartly sunny.8 mph61%30.11 "Hg8 mi
6:53 PM70 °FPartly sunny.10 mph59%30.11 "Hg9 mi
5:53 PM71 °FPartly sunny.9 mph57%30.11 "Hg10 mi
4:53 PM73 °FPassing clouds.12 mph53%30.12 "Hg10 mi
3:53 PM74 °FPassing clouds.9 mph52%30.12 "Hg10 mi
2:53 PM75 °FPassing clouds.5 mph48%30.13 "Hg10 mi
1:53 PM72 °FScattered clouds.5 mph52%30.16 "Hg10 mi
12:53 PM70 °FPartly sunny.7 mph55%30.18 "Hg10 mi
Weather by CustomWeather, © 2015

See weather overviewHow to use our weather pages